カタログに戻る

INTELSAT 4A-F3

運用中通信GEO
NORAD 10557·PAYLOAD· XX

打ち上げ Jan 7, 1978 から Cape Canaveral Space Force Station

Loading…

TLE

最新Source: Space-Track

元期: Sep 14, 2026, 12:44 UTC

1 10557U 78002A   26257.53084872 -.00000352  00000-0  00000+0 0  9994
2 10557   8.8295 312.1338 0004958 290.9315  77.9028  0.99916021 49641

AllMySatでINTELSAT 4A-F3をリアルタイム追跡

Download on the App Store